This is the latest recevied weather packets stored in our database for station/object SP2WM. If no packets are shown the sender has not sent any weather packets the latest 10 day(s).
| Time | Temp. | Humidity | Pressure | Rain* | Wind** | Luminosity | Snow |
|---|---|---|---|---|---|---|---|
| 1777479037 | 12.22° C | 32% | 1026.4 hPa | 0 mm | - | - | - |
| 1777478436 | 11.67° C | 32% | 1026.4 hPa | 0 mm | - | - | - |
| 1777477836 | 12.22° C | 32% | 1026.3 hPa | 0 mm | - | - | - |
| 1777477235 | 12.22° C | 31% | 1026.4 hPa | 0 mm | - | - | - |
| 1777476641 | 12.22° C | 31% | 1026.4 hPa | 0 mm | - | - | - |
| 1777476032 | 12.78° C | 31% | 1026.4 hPa | 0 mm | - | - | - |
| 1777475432 | 13.33° C | 30% | 1026.4 hPa | 0 mm | - | - | - |
| 1777474833 | 13.33° C | 30% | 1026.4 hPa | 0 mm | - | - | - |
| 1777474238 | 13.33° C | 30% | 1026.2 hPa | 0 mm | - | - | - |
| 1777473633 | 13.33° C | 30% | 1026.2 hPa | 0 mm | - | - | - |
| 1777472437 | 14.44° C | 28% | 1026.2 hPa | 0 mm | - | - | - |
| 1777471835 | 14.44° C | 28% | 1026.2 hPa | 0 mm | - | - | - |
| 1777471239 | 14.44° C | 29% | 1026.2 hPa | 0 mm | - | - | - |
| 1777470638 | 13.89° C | 28% | 1026.3 hPa | 0 mm | - | - | - |
| 1777470035 | 13.33° C | 30% | 1026.2 hPa | 0 mm | - | - | - |
| 1777469434 | 13.33° C | 30% | 1026.2 hPa | 0 mm | - | - | - |
| 1777468838 | 13.33° C | 30% | 1026.2 hPa | 0 mm | - | - | - |
| 1777468237 | 13.89° C | 29% | 1026.2 hPa | 0 mm | - | - | - |
| 1777467637 | 13.89° C | 29% | 1026.4 hPa | 0 mm | - | - | - |
| 1777467039 | 12.78° C | 30% | 1026.4 hPa | 0 mm | - | - | - |
| 1777466422 | 12.78° C | 30% | 1026.4 hPa | 0 mm | - | - | - |
| 1777465822 | 13.33° C | 29% | 1026.2 hPa | 0 mm | - | - | - |
| 1777465223 | 13.33° C | 30% | 1026.3 hPa | 0 mm | - | - | - |
| 1777464623 | 12.22° C | 31% | 1026.4 hPa | 0 mm | - | - | - |
| 1777464029 | 12.78° C | 31% | 1026.2 hPa | 0 mm | - | - | - |
* Rain latest hour (hover to see other rain measurements)
** Current wind speed in m/s (hover to see current wind gust speed)